Location: Unspecified
(33.9360°N, 83.4200°W)
Time: 03:46:05
(UTC-04:00)

Daily predictions for brighter satellites

Satellite Brightness Start Highest point End
(mag) Time Altitude Azimuth Time Altitude Azimuth Time Altitude Azimuth
ADEOS II 4.3 04:24:08 10° N 04:25:29 19° N 04:25:29 19° N
USA 215 3.6 04:37:26 10° NE 04:42:47 57° N 04:42:47 57° N
ATLAS 2AS CENTAUR R/B 4.1 04:48:43 25° SSE 04:52:19 37° ESE 04:59:33 10° NE
COSMOS 2406 3.9 04:56:24 49° NNE 04:56:24 49° NNE 05:00:31 10° NNE
Cosmos 2082 Rocket 3.8 05:06:20 18° SSE 05:09:33 31° ESE 05:14:30 10° NE
Cosmos 1867 3.8 05:13:33 61° SE 05:13:49 61° ESE 05:19:13 10° NE
MOS 1-B Rocket 4.3 05:06:49 10° N 05:14:49 72° WNW 05:15:50 64° WSW
Meteor 1-27 Rocket 4.3 05:18:32 44° NNW 05:18:32 44° NNW 05:22:43 10° N
Cosmos 1782 Rocket 4.4 05:13:19 10° N 05:16:44 47° NNE 05:16:44 47° NNE
Cosmos 1932 4.3 05:17:54 10° NNW 05:24:14 74° WSW 05:30:37 10° SSE
Sakura Rocket 4.1 05:24:15 50° S 05:24:26 50° S 05:31:23 10° E
SME Rocket 4.0 05:21:13 10° NNE 05:26:53 55° E 05:28:23 37° SSE
Lacrosse 4 Rocket 3.7 05:25:02 15° SE 05:27:08 21° ESE 05:30:19 10° ENE
CZ-4B R/B 4.1 05:24:56 10° NNE 05:28:25 35° E 05:29:06 32° ESE
Cosmos 1833 Rocket 2.9 05:27:55 39° S 05:29:55 65° ESE 05:35:28 10° NNE
Okean 2 Rocket 4.4 05:26:05 10° N 05:30:11 38° E 05:34:16 10° SSE
Cosmos 1709 Rocket 4.4 05:36:41 43° WNW 05:36:41 43° WNW 05:42:11 10° N
Cosmos 1818 4.2 05:31:41 10° NNW 05:37:04 56° ENE 05:42:23 10° SE
Cosmos 2098 Rocket 3.8 05:43:37 17° SSW 05:48:51 75° W 05:54:23 10° N
NOSS 2-2 (D) 3.9 05:52:04 32° S 05:53:22 49° ESE 05:57:06 10° NE
Helios 1A Rocket 2.8 05:50:54 10° NNE 05:55:04 88° W 05:56:46 35° SSW
Meteor 1-11 Rocket 4.5 05:50:28 10° NNW 05:55:04 34° WNW 05:55:04 34° WNW
Cosmos 2251 Rocket 3.9 05:51:01 10° N 05:56:22 67° ENE 06:01:41 10° SSE
Cosmos 2327 Rocket 4.4 05:57:08 10° S 06:03:14 88° E 06:09:26 10° N
NOSS 2-2 (E) 3.0 06:04:26 43° SSW 06:05:35 88° WNW 06:09:32 10° NNE
Meteor 1-31 Rocket 2.6 06:05:48 10° N 06:09:36 80° WNW 06:12:17 18° SSW
Cosmos 2154 Rocket 4.2 06:03:38 10° S 06:09:54 74° E 06:16:15 10° N
Cosmos 1697 Rocket 3.5 06:05:13 10° N 06:10:44 54° ENE 06:16:11 10° SE
CZ-4B R/B 4.5 06:07:03 10° NNE 06:12:22 44° E 06:17:43 10° S
Okean 3 3.4 06:09:10 10° S 06:13:26 79° W 06:17:46 10° N
Cosmos 2074 Rocket 4.1 06:09:58 10° SSW 06:16:00 54° W 06:22:07 10° N
Cosmos 2369 3.8 06:11:43 10° NNW 06:17:29 81° ENE 06:23:12 10° SSE
Cosmos 1461 2.8 06:18:08 10° NW 06:21:58 51° WSW 06:25:45 10° S
Okean O Rocket 2.2 06:18:09 10° NNE 06:22:26 57° E 06:26:41 10° S
Aureole 1 Rocket 4.1 06:19:34 10° NW 06:21:45 22° WNW 06:21:45 22° WNW
NOSS 2-2 (C) 3.1 06:22:57 24° SW 06:24:59 63° WNW 06:28:52 10° NNE
Cosmos 1610 Rocket 4.5 06:19:07 10° SSW 06:25:25 72° W 06:31:42 10° N
PAYLOAD A 4.2 06:22:02 10° N 06:27:21 61° WNW 06:32:42 10° SSW
Atlas Centaur 2 4.2 06:21:21 10° SW 06:28:45 37° SSE 06:36:15 10° E
IDEFIX/ARIANE 42P 3.2 06:24:53 10° N 06:29:32 35° WNW 06:33:35 13° SW
Cosmos 1656 3.6 06:24:35 10° NNW 06:29:54 58° WSW 06:35:12 10° S
Lacrosse 5 2.9 06:26:26 10° SSW 06:31:15 45° ESE 06:36:05 10° NE
CZ-4B DEB 4.2 06:25:58 10° NNE 06:31:30 87° WNW 06:37:02 10° SSW
Meteor 1-19 Rocket 4.1 06:26:25 10° S 06:32:03 84° W 06:37:37 10° N
Tiangong 2 1.8 06:31:36 27° WSW 06:32:40 35° SW 06:35:36 10° SSE
PSLV R/B 4.1 06:29:26 10° N 06:32:54 41° WNW 06:36:18 11° SW
Cosmos 2278 3.8 06:27:22 10° NNW 06:33:07 86° ENE 06:38:49 10° SSE
COSMOS 2441 4.4 06:28:27 10° N 06:33:11 56° WNW 06:37:51 10° SSW
Okean 1 4.1 06:32:29 16° SW 06:35:00 31° W 06:38:37 10° NNW
CZ-2C R/B 2.4 06:34:06 10° N 06:38:53 58° WNW 06:43:29 10° SSW
USA 238 DEB 4.0 06:32:48 10° NNW 06:40:03 83° ENE 06:47:26 10° SSE
USA 238 4.0 06:32:53 10° NNW 06:40:09 83° ENE 06:47:32 10° SSE
Cosmos 1666 3.6 06:39:08 10° NNW 06:42:28 28° W 06:45:47 10° SSW
COSMO-SKYMED 1 3.3 06:38:24 10° SSE 06:42:39 58° ENE 06:46:55 10° N
Meteor PRIRODA 4.2 06:39:15 10° N 06:42:42 36° WNW 06:46:08 10° SW
ATLAS 2AS CENTAUR R/B 3.4 06:36:12 12° WSW 06:43:09 47° NW 06:50:55 10° NNE
SL-27 R/B 3.3 06:40:58 15° SW 06:43:14 30° WNW 06:46:24 10° N
Cosmos 1378 Rocket 3.5 06:40:05 10° S 06:44:29 77° W 06:48:53 10° N
Aureole 2 Rocket 2.3 06:42:04 10° NW 06:44:33 34° WSW 06:46:59 10° S
Okean 1 Rocket 3.5 06:40:45 10° N 06:45:10 66° E 06:49:32 10° SSE
IRIS 4.4 06:45:22 19° W 06:46:32 32° SSW 06:48:53 10° SE
Cosmos 1674 Rocket 3.9 06:45:09 10° SSW 06:49:15 41° W 06:53:25 10° N
Cosmos 2082 Rocket 3.0 06:48:31 10° WSW 06:53:31 31° WNW 06:58:33 10° N
Cosmos 1624 Rocket 4.0 06:50:40 10° SSW 06:55:53 89° WNW 07:01:05 10° NNE
USA 267 3.3 06:50:42 10° SE 06:57:16 88° SW 07:03:51 10° NW
Cosmos 1743 3.5 06:55:33 10° NNW 06:58:56 30° W 07:02:17 10° SSW
COSMOS 2487 3.9 06:57:22 10° S 07:00:39 42° ESE 07:03:58 10° NNE
Cosmos 1300 Rocket 4.3 06:59:25 10° NNW 07:03:18 30° W 07:07:09 10° SSW
Cosmos 1975 Rocket 3.5 06:59:43 10° S 07:04:07 68° E 07:08:31 10° NNE
Cosmos 1400 Rocket 3.6 07:01:54 10° SW 07:05:26 31° WNW 07:09:01 10° NNW
Cosmos 1980 Rocket 2.3 06:59:53 10° NNW 07:05:37 88° ENE 07:11:17 10° SSE
Lacrosse 4 Rocket 2.5 07:02:11 10° WSW 07:05:38 25° WNW 07:09:11 10° N
Meteor 1-13 Rocket 4.2 07:00:30 10° SSW 07:06:13 70° W 07:11:51 10° N
Cosmos 1975 3.7 07:04:12 10° NNW 07:07:42 28° W 07:11:11 10° SSW
Cosmos 1515 3.9 07:05:57 10° SSW 07:09:39 48° W 07:13:23 10° N
Cosmos 2366 rocket 4.4 07:04:40 10° S 07:10:49 72° E 07:16:58 10° N
CZ-3 R/B 3.2 07:07:40 10° SW 07:18:57 31° S 07:23:19 10° ESE
